GFSMW_850_spd_159.txt.gz
Wind_Speed
35 32 30 28 27 24 21 19 16 12 8 5 4 4 7 10 12 13 14 16 19 21 21 21 23 28 32 32 30 28 27 26 24 27 31 21 18 10 11 14 19 18 22
38 36 34 32 29 26 24 20 15 10 7 6 3 4 8 10 10 11 13 15 18 19 21 23 25 29 31 30 28 27 26 21 22 22 23 17 15 12 21 10 14 18 13
41 41 39 35 31 28 24 20 15 12 9 5 2 5 8 8 8 9 12 16 19 20 21 21 23 25 28 29 27 24 23 23 20 18 12 10 9 36 12 14 9 14 12
41 42 42 38 34 29 25 21 18 12 7 4 2 5 6 5 6 11 15 17 18 18 18 19 21 23 24 25 25 24 23 21 21 19 12 13 18 12 21 14 19 18 20
51 48 46 40 35 31 28 23 18 12 7 7 5 4 4 7 10 12 14 15 15 15 16 18 19 19 21 23 24 25 25 23 20 19 20 19 17 14 19 27 22 18 10
50 50 45 42 38 33 30 25 20 14 12 9 5 3 7 9 9 10 11 12 13 13 15 16 17 18 20 21 23 24 24 24 22 19 17 16 15 16 17 22 26 24 20
44 48 51 47 41 38 33 28 23 17 13 9 1 4 6 8 8 9 11 11 11 12 13 14 16 17 18 19 20 22 25 27 25 21 18 17 16 14 17 20 22 23 16
42 48 53 49 45 40 35 31 26 19 14 7 1 3 6 6 8 9 10 10 11 11 12 14 15 16 16 17 19 21 23 26 26 22 19 17 14 13 14 16 14 20 13
39 44 52 52 45 43 37 32 25 20 14 7 2 4 6 6 8 8 8 9 9 9 10 12 13 14 15 16 17 19 21 25 26 25 20 18 15 11 11 14 14 16 12
28 34 46 50 48 41 35 30 25 19 13 8 6 5 5 6 7 7 7 7 7 7 8 10 12 13 14 15 16 18 19 21 24 26 22 20 16 11 8 8 11 14 14
26 34 41 48 46 39 35 31 28 20 15 10 8 4 6 7 6 6 6 6 6 6 7 9 10 12 14 15 16 17 19 20 21 24 24 22 18 14 8 5 6 7 11
23 32 40 48 45 40 37 35 28 22 15 13 7 7 7 6 5 5 4 5 4 4 6 7 9 12 13 14 16 18 20 20 21 23 24 26 23 16 12 7 4 2 0
20 29 38 45 45 43 40 34 28 21 17 12 9 8 7 7 6 4 4 3 3 4 5 6 8 11 13 14 16 17 19 20 23 23 25 25 26 23 17 12 7 4 3
24 30 38 42 44 41 38 33 27 22 18 14 12 9 9 7 5 4 3 2 2 3 3 4 7 9 11 12 15 16 17 19 21 23 25 27 26 25 22 18 14 10 9
26 34 41 42 40 39 35 31 28 24 19 16 12 11 10 8 6 4 3 2 1 1 2 3 6 8 8 11 13 14 15 16 18 21 23 26 27 26 23 21 20 17 17
30 35 38 39 38 37 38 35 30 25 21 17 14 12 10 9 7 5 5 4 2 1 2 3 5 7 8 10 13 14 14 14 16 18 19 22 24 26 26 24 22 21 20
35 37 38 37 37 38 37 34 32 26 21 18 15 13 11 10 9 8 7 5 3 2 2 3 4 6 8 10 12 14 14 14 15 17 18 19 22 23 23 23 22 23 25
32 36 40 38 37 34 32 33 31 26 22 19 16 14 13 13 11 11 9 7 5 3 3 3 4 5 6 9 10 13 14 14 15 16 17 18 19 21 21 20 22 24 24
33 30 28 26 26 29 31 33 31 27 23 19 16 15 16 14 13 12 10 8 6 5 3 3 4 4 5 7 8 10 11 13 15 16 16 17 17 19 18 17 20 22 25
21 20 21 21 21 23 27 33 31 27 23 19 17 17 17 16 14 12 10 8 6 5 4 3 3 3 4 4 6 8 9 10 12 14 15 16 16 16 16 17 18 20 23
18 20 20 17 17 19 24 28 27 23 19 18 19 19 18 16 15 13 11 9 7 6 4 3 2 1 2 3 5 6 6 8 10 11 13 14 15 15 15 16 18 20 18
24 19 17 17 17 18 21 24 23 20 19 19 19 18 18 19 17 15 13 11 8 6 4 4 4 3 2 1 4 5 5 7 7 8 10 11 12 13 14 15 17 15 14
19 18 16 17 18 19 21 21 21 22 21 20 20 19 19 18 17 15 15 13 10 8 6 4 5 5 5 3 1 3 4 5 5 6 8 9 9 10 10 11 11 11 12
17 16 17 17 18 20 21 19 19 19 19 20 20 20 20 19 18 17 15 14 12 10 8 6 6 6 6 5 3 2 1 2 3 4 6 6 7 8 9 9 10 11 12
16 16 17 17 18 20 22 21 19 19 20 20 20 21 20 19 18 18 16 13 11 9 9 8 8 8 7 6 4 3 3 1 1 2 4 5 6 6 7 8 9 9 10
17 16 18 19 20 22 23 22 20 19 20 21 22 22 21 20 19 18 17 15 12 11 12 10 9 9 9 7 5 3 2 2 1 1 2 3 4 5 6 7 7 8 9

GFSMW_850_spd_162.txt.gz
Wind_Speed
30 27 26 25 24 25 27 25 23 19 15 12 8 7 5 5 6 6 8 9 11 13 13 15 16 18 20 21 23 24 24 23 23 25 27 16 13 11 11 23 15 15 16
32 31 29 28 28 28 27 26 23 18 15 13 11 8 5 5 6 6 8 9 10 11 12 13 16 18 19 20 22 23 24 20 21 20 20 14 13 5 26 10 14 15 15
38 35 34 31 29 29 29 27 24 20 18 13 10 8 5 4 5 6 8 9 9 11 13 15 15 15 17 18 20 20 21 21 19 16 10 9 8 30 6 11 11 18 18
38 35 35 33 31 29 28 27 25 22 17 14 12 7 5 4 5 7 7 8 9 11 12 13 14 15 15 16 16 18 21 21 21 18 6 12 17 10 18 10 21 23 20
43 42 41 36 31 28 30 29 27 23 18 17 12 7 5 5 6 6 6 7 9 10 11 12 13 14 14 15 15 18 18 19 18 17 17 15 14 15 20 28 24 26 21
43 40 37 34 33 30 30 31 29 24 21 17 11 8 6 6 5 3 3 5 6 9 10 11 11 12 12 13 15 17 17 18 19 20 17 14 13 17 16 25 28 27 25
39 41 41 40 37 34 33 33 31 27 22 16 12 10 8 5 3 2 3 4 6 7 9 10 10 11 12 13 15 15 15 17 21 21 18 15 15 16 16 19 23 21 22
40 44 43 41 38 38 37 37 34 28 23 18 16 12 8 5 3 4 5 5 6 7 8 8 9 10 11 13 14 13 15 17 20 21 19 17 16 15 13 15 17 22 13
37 41 41 44 41 41 42 41 36 30 23 21 17 12 8 5 5 6 6 6 6 7 7 7 8 9 11 12 13 13 17 17 18 20 21 19 17 15 11 10 12 12 11
28 34 38 39 41 44 43 39 35 30 25 22 18 12 8 6 6 6 6 6 6 5 5 6 7 8 9 11 12 13 16 17 16 19 21 21 18 15 12 8 10 10 10
25 31 34 35 35 39 41 40 36 32 28 23 18 13 10 8 7 7 7 6 5 4 4 5 6 7 8 10 11 12 15 17 17 19 21 23 20 17 14 8 8 9 9
21 25 32 35 41 47 44 42 38 33 28 24 18 15 11 10 9 7 7 6 5 4 3 3 4 6 7 9 10 12 14 16 17 19 21 23 22 19 17 12 9 8 4
20 23 28 38 43 47 45 41 39 36 30 24 20 16 14 11 8 8 7 5 4 3 3 2 3 5 6 8 9 11 13 15 16 19 21 23 24 23 20 17 13 10 5
20 24 27 30 40 44 44 42 40 34 29 24 20 18 14 10 9 9 7 6 5 4 3 1 1 3 5 7 8 10 12 13 16 17 20 22 24 25 22 19 16 13 11
21 24 26 29 35 44 46 43 33 31 28 25 21 17 13 12 11 10 8 7 7 6 3 2 1 2 3 5 7 8 10 12 13 15 17 19 23 24 24 21 18 16 14
22 24 26 30 37 40 40 41 37 35 30 26 22 18 16 14 13 11 10 9 8 6 5 4 2 1 2 4 6 8 9 10 11 13 15 17 19 21 22 21 21 20 17
25 28 34 37 38 39 40 42 41 35 31 27 23 20 17 16 15 13 12 10 9 7 6 4 3 2 3 4 6 8 8 9 11 12 14 15 17 19 19 20 20 21 23
25 29 31 33 34 36 38 36 34 34 32 28 24 21 19 18 16 14 13 12 10 8 7 5 4 3 3 4 5 7 8 9 10 11 12 14 16 17 17 18 19 21 23
27 34 36 32 34 34 34 34 33 33 32 29 25 23 21 19 17 16 15 13 12 10 8 7 5 3 3 4 4 6 7 8 9 11 11 12 13 16 15 16 18 19 22
26 28 33 33 29 29 31 34 35 33 32 29 25 23 21 19 18 17 16 14 12 11 9 8 6 4 3 3 3 4 5 6 7 9 10 11 12 13 13 13 15 16 19
22 23 25 28 30 30 31 33 34 34 31 27 24 23 22 21 19 18 17 15 13 12 11 9 7 5 3 3 4 3 4 4 5 5 7 9 10 11 12 12 13 15 15
22 23 26 25 24 27 28 30 32 30 28 26 23 21 22 22 22 20 18 15 14 12 10 9 7 5 5 4 4 3 3 3 3 3 4 7 10 11 12 12 14 12 12
23 23 24 24 24 24 25 26 30 29 27 25 22 22 23 22 21 20 19 17 15 11 11 10 9 8 8 5 3 3 3 2 2 2 4 5 7 8 9 11 11 11 12
25 24 23 22 22 22 23 24 25 27 26 24 24 24 24 23 22 21 19 16 15 13 11 10 10 9 9 8 5 4 4 3 2 2 2 3 4 4 6 8 8 9 10
23 21 20 19 19 22 25 25 26 25 25 24 25 25 24 23 22 20 19 17 15 13 11 11 10 11 10 10 9 7 6 4 3 2 1 2 3 4 5 6 7 8 9
19 17 15 16 19 22 25 26 25 24 25 26 26 25 23 21 18 18 18 19 16 15 15 13 11 12 14 10 9 9 8 6 5 3 2 1 0 2 3 4 6 6 6

GFSMW_850_spd_165.txt.gz
Wind_Speed
32 30 30 29 28 27 25 24 25 25 22 17 13 10 7 5 5 4 4 5 6 8 9 9 11 12 12 14 17 18 20 19 25 24 32 22 15 13 11 18 14 17 18
33 34 33 32 31 29 26 25 24 25 20 15 11 10 9 6 4 4 4 5 6 7 8 9 10 11 11 13 16 17 19 16 20 22 19 16 17 6 17 9 12 15 21
36 38 36 35 32 30 28 26 24 24 20 16 16 14 10 6 4 4 4 4 6 7 8 9 9 10 11 11 14 15 17 17 17 20 13 11 9 31 10 13 16 19 22
39 40 38 37 35 31 28 26 24 24 21 20 15 13 8 5 7 6 5 6 6 7 8 9 9 9 9 11 11 15 15 17 17 17 13 12 16 10 20 11 25 22 25
39 42 41 39 34 31 30 28 26 24 23 21 16 14 10 12 9 7 5 5 6 6 7 8 8 8 7 10 12 14 14 14 16 16 17 15 13 13 19 32 29 29 23
36 39 38 36 35 33 31 30 28 25 23 23 19 15 14 11 8 6 4 3 3 6 7 8 7 7 8 10 11 12 12 14 15 17 16 14 13 17 17 26 30 31 26
37 40 40 40 38 38 35 32 30 27 26 25 22 19 15 12 10 6 5 3 2 3 8 6 6 6 8 10 10 10 12 11 17 17 17 16 14 16 18 21 24 25 24
35 39 41 42 41 40 37 35 33 30 29 27 24 19 16 12 10 9 6 5 4 5 6 5 6 7 8 9 10 8 10 11 15 16 17 19 16 16 16 16 18 24 16
32 36 37 41 41 41 39 39 36 31 31 29 25 21 17 12 10 8 7 6 5 6 5 5 4 6 8 8 9 8 11 11 12 15 18 20 17 15 15 13 11 14 16
26 31 35 37 38 39 37 34 32 33 32 30 25 20 16 14 11 8 7 6 6 5 6 4 4 5 6 8 8 7 10 10 11 13 18 19 18 15 14 13 9 10 13
22 28 34 35 35 36 35 35 32 32 32 30 25 19 18 15 11 8 7 5 7 7 5 4 4 4 5 6 7 8 9 10 11 14 17 19 18 15 16 12 10 10 11
18 24 30 35 36 37 39 38 38 38 34 31 25 22 18 15 12 9 5 9 9 6 4 3 3 2 4 5 6 7 8 10 12 15 17 18 19 16 16 14 12 11 8
15 20 24 32 38 38 39 42 44 40 36 30 25 24 20 16 13 9 12 10 7 5 5 4 2 1 2 3 4 5 7 9 12 14 17 19 20 20 16 15 15 12 12
14 20 24 26 38 37 40 38 42 40 37 33 26 24 21 16 13 14 11 9 7 6 5 3 2 2 1 1 3 4 6 8 10 13 15 17 20 22 21 16 14 14 10
17 21 24 29 32 33 44 42 42 38 35 30 26 23 20 17 16 13 11 10 9 8 5 3 2 2 2 0 0 2 4 6 8 10 12 14 17 20 20 20 16 14 13
19 22 25 29 33 34 46 43 42 36 35 27 27 24 21 19 17 14 13 12 11 10 9 8 7 5 2 2 2 2 3 4 6 7 9 11 13 16 18 17 18 17 16
20 24 28 31 34 40 46 47 43 42 35 33 28 25 22 20 17 16 17 14 12 11 10 9 7 6 4 4 4 3 3 4 5 6 8 10 12 12 14 15 17 18 19
17 23 25 27 30 30 33 34 35 39 36 33 30 27 24 21 20 20 16 15 14 12 11 10 8 7 5 5 4 4 3 4 5 6 7 8 10 11 12 13 14 16 19
17 25 25 27 30 33 32 34 36 36 34 34 33 30 25 23 22 20 18 17 15 13 12 10 8 7 7 6 5 4 3 3 4 6 6 6 8 10 10 11 12 14 16
19 25 30 28 32 35 39 38 35 35 35 33 32 29 27 25 22 21 20 18 15 13 12 10 9 7 6 6 5 5 2 2 3 4 5 6 7 9 9 10 10 11 14
23 25 34 35 37 37 35 35 34 34 34 31 29 28 26 25 22 22 20 17 15 13 12 12 10 9 7 7 7 6 7 4 3 2 3 5 6 7 8 8 9 11 11
21 26 32 33 31 32 26 35 35 31 31 31 29 27 25 24 23 22 19 16 15 13 12 10 8 7 8 8 8 7 5 5 4 3 1 3 4 5 6 7 8 7 9
19 26 31 33 32 34 29 31 34 31 33 32 28 25 25 23 23 23 21 18 16 13 13 12 10 9 10 10 9 8 7 7 6 3 1 1 2 4 6 7 7 8 9
17 23 26 27 30 30 28 27 29 31 32 32 28 25 24 24 23 21 20 16 16 15 13 12 12 12 11 11 9 9 8 7 5 4 2 0 2 3 5 7 8 8 9
18 23 24 26 27 27 26 25 27 30 31 29 27 26 25 24 23 19 17 15 16 15 14 14 13 14 13 13 12 9 7 7 6 4 2 0 1 1 2 5 6 6 6
18 19 21 22 23 24 24 25 27 29 30 29 27 24 23 22 21 19 18 20 17 21 19 17 15 18 17 18 15 13 10 7 6 4 3 3 2 1 1 2 3 4 5

GFSMW_850_spd_168.txt.gz
Wind_Speed
28 32 35 33 33 35 34 32 31 33 31 28 25 21 18 14 11 7 4 1 2 3 5 7 8 9 11 12 15 16 18 18 24 27 28 21 9 5 7 12 11 16 17
33 33 37 35 37 39 36 35 34 33 30 26 21 17 16 14 11 8 5 2 1 2 4 6 8 9 9 11 14 16 17 16 22 24 19 16 11 9 11 6 16 19 23
36 39 41 42 39 37 37 36 35 33 29 24 23 23 19 14 11 8 6 3 1 2 4 5 7 8 9 10 12 14 15 17 17 18 18 10 8 34 14 8 12 23 27
33 42 45 45 43 35 36 35 34 32 29 31 31 25 18 15 11 9 5 3 2 2 3 5 6 7 8 9 11 12 13 14 15 14 16 11 10 10 18 25 24 30 26
36 45 49 49 45 38 38 33 32 32 32 32 27 22 15 16 15 10 7 4 3 2 2 4 6 7 7 8 10 10 11 14 15 16 17 14 16 9 14 29 40 34 25
44 46 51 50 46 41 39 37 34 32 33 30 25 26 24 22 18 12 8 5 3 3 1 4 5 6 6 7 8 8 10 13 15 15 15 17 16 17 15 25 32 32 27
45 42 50 50 47 45 42 40 36 34 33 31 29 28 26 19 14 11 8 7 5 4 2 4 5 5 5 6 6 6 8 10 15 16 16 16 15 14 15 19 24 28 26
34 41 50 48 48 46 44 43 40 34 34 34 33 31 26 20 15 14 12 11 10 5 4 4 4 4 4 4 4 5 6 8 10 14 18 17 15 13 12 15 18 25 22
20 34 41 44 46 46 45 46 40 35 36 34 33 30 26 21 18 14 11 11 7 6 4 3 4 3 2 2 1 4 6 7 9 13 17 18 16 12 11 10 10 12 17
17 25 34 41 43 45 46 45 39 36 34 34 33 30 26 21 16 14 10 7 7 6 4 4 3 2 2 0 0 3 5 7 9 12 15 18 16 11 12 8 7 8 11
11 26 28 39 39 40 45 44 39 38 38 36 33 31 26 21 17 12 8 10 9 7 5 3 3 4 2 1 1 3 5 6 9 11 14 16 17 14 13 10 7 8 11
9 21 25 35 36 39 39 44 39 38 37 35 35 30 24 20 14 11 13 12 9 6 5 6 6 4 2 1 1 2 4 6 8 11 13 15 16 15 14 12 10 10 13
9 16 21 35 37 38 38 42 38 39 38 36 34 28 21 15 16 18 15 12 8 7 8 8 6 4 3 1 1 2 3 5 7 9 11 14 15 16 16 14 12 9 8
12 19 23 33 35 39 39 42 38 39 40 37 34 28 18 17 21 19 15 11 10 11 10 8 7 6 4 3 2 1 2 4 6 7 9 11 13 16 17 15 14 11 8
11 18 25 34 38 41 42 43 43 42 40 38 33 22 19 23 23 19 15 13 14 12 9 7 6 6 5 4 2 1 1 2 4 5 7 9 10 14 16 16 16 14 10
16 21 26 32 38 43 48 49 43 42 40 37 31 28 25 27 24 19 17 17 16 15 14 13 11 5 4 5 4 3 2 2 2 2 4 6 8 10 13 14 15 15 15
19 22 28 33 38 42 47 47 44 43 45 40 37 34 32 27 22 20 20 18 17 16 16 12 9 6 6 6 5 4 3 3 2 2 3 5 6 7 9 11 13 13 15
19 24 27 28 34 34 41 45 42 45 46 41 40 34 29 26 24 22 19 17 16 15 14 13 10 8 8 7 7 6 4 3 2 2 2 4 5 6 8 9 9 11 12
13 21 27 29 29 33 35 41 46 50 51 47 38 31 29 27 24 22 20 18 17 16 15 13 10 9 8 8 7 6 3 3 4 3 3 3 4 5 5 6 7 9 10
11 18 23 29 32 35 32 40 44 44 44 39 37 37 32 28 25 22 21 18 18 17 14 13 12 10 10 10 9 7 4 3 1 3 2 2 2 4 4 5 5 5 9
12 19 25 33 33 35 37 40 39 41 39 38 35 28 27 28 25 23 21 20 19 17 16 14 12 11 11 10 11 10 8 5 3 4 2 2 1 2 3 4 5 6 8
11 25 30 33 35 37 41 42 39 30 30 30 33 33 30 29 25 24 22 20 18 16 15 14 14 12 11 11 12 12 9 10 9 7 3 3 2 1 2 2 4 4 6
13 26 33 33 36 38 40 36 36 34 26 30 30 29 29 26 25 25 22 21 19 16 14 12 10 10 12 11 11 12 12 12 9 5 3 4 3 2 1 2 2 3 4
14 22 31 34 37 36 33 32 33 31 30 32 30 30 29 27 25 24 22 21 21 18 17 16 14 16 15 11 10 12 11 10 8 6 5 4 3 1 0 2 3 3 4
12 21 27 30 33 34 33 28 29 32 32 30 32 30 28 26 24 23 23 21 19 18 19 19 18 19 17 13 9 10 11 11 9 7 6 4 1 2 3 5 3 3 3
11 17 23 26 30 30 28 28 30 31 32 34 33 31 28 26 24 23 23 20 19 20 19 19 19 20 16 14 12 10 7 5 6 7 5 6 7 7 5 3 6 4 3

GFSMW_850_spd_174.txt.gz
Wind_Speed
47 51 49 47 42 47 47 48 47 46 46 46 43 39 36 32 28 25 23 22 19 17 14 12 9 7 4 2 3 3 4 3 4 5 3 2 1 6 13 12 16 16 15
36 45 51 50 50 52 52 51 49 47 48 48 47 41 37 33 29 26 24 21 19 17 14 12 9 6 4 3 3 3 4 5 6 7 5 1 3 4 3 8 17 15 12
43 49 53 54 54 56 57 55 53 52 48 49 46 40 36 33 32 28 25 23 20 17 14 12 9 6 4 3 2 3 4 6 7 9 7 3 3 12 4 11 16 11 10
39 49 59 56 60 60 59 58 56 54 50 48 48 47 46 42 35 30 27 24 21 18 15 12 9 7 5 3 1 3 5 7 8 9 9 6 4 5 6 9 14 11 9
34 45 52 64 65 64 63 63 60 54 50 47 47 46 44 39 34 30 27 24 21 19 16 13 10 7 5 2 0 3 4 6 8 9 9 8 8 9 4 8 16 9 7
30 44 53 58 62 61 63 65 61 55 47 45 47 46 42 39 35 32 29 25 22 19 17 13 11 8 6 3 1 2 4 6 7 9 9 9 8 7 5 7 15 11 7
26 33 46 45 52 59 65 65 62 57 50 48 46 44 38 35 32 32 31 28 24 21 17 14 10 9 6 3 2 1 2 5 5 6 7 9 9 8 7 8 9 11 10
39 34 46 59 64 67 69 67 64 59 51 47 46 44 39 34 30 29 28 25 22 20 17 14 12 9 7 4 2 1 1 3 4 5 7 8 7 8 6 6 9 11 6
18 26 43 59 57 55 56 60 62 54 46 45 44 40 38 35 33 30 26 23 22 20 15 13 12 10 7 5 4 1 0 1 3 4 5 6 6 6 5 5 5 5 6
4 12 34 36 37 41 45 49 52 51 45 45 44 41 39 33 33 29 28 27 24 18 15 15 13 8 7 7 4 3 2 0 1 2 3 4 4 5 6 6 5 3 5
15 24 27 32 34 35 40 46 47 42 40 40 44 42 37 37 34 31 31 27 21 17 17 17 10 9 8 8 6 5 3 2 2 1 2 3 3 3 5 6 4 4 5
12 18 25 33 35 36 37 38 45 47 43 47 46 43 41 37 33 32 29 25 21 19 18 12 12 12 10 9 8 6 5 4 3 1 0 2 2 3 6 7 6 5 4
16 21 25 29 35 39 41 42 42 41 45 45 43 42 41 40 37 35 30 25 22 18 18 12 15 13 12 10 9 8 6 6 5 4 2 1 3 4 6 7 8 6 6
17 23 28 32 35 39 38 38 47 47 46 43 43 43 42 39 38 34 29 25 20 21 14 17 15 13 12 11 10 8 8 8 6 5 4 3 2 4 6 7 7 7 7
23 27 27 32 36 40 40 43 47 50 45 45 44 43 40 39 37 32 27 20 19 19 18 19 15 14 12 11 10 10 9 8 8 6 5 4 3 3 4 6 6 8 8
21 26 30 32 33 37 40 46 49 50 49 47 45 42 42 41 37 31 25 25 19 21 20 16 14 13 13 13 12 11 10 9 8 7 6 4 3 2 3 4 5 6 7
23 32 33 36 39 42 43 49 51 50 50 46 44 42 41 40 35 31 30 20 25 25 19 17 15 14 14 14 13 12 11 9 8 8 7 5 4 3 2 2 4 4 4
28 29 37 38 42 41 43 47 50 51 50 47 44 43 41 40 38 32 26 30 31 23 19 18 16 15 15 14 14 13 12 11 11 11 8 6 5 4 2 1 1 2 2
24 24 27 39 42 37 41 47 48 51 49 47 46 42 47 44 37 29 33 30 25 24 21 18 16 15 16 15 15 14 14 14 14 12 11 9 6 4 3 2 1 1 3
14 18 24 34 34 36 41 45 48 51 50 48 45 39 49 48 35 34 33 27 25 23 20 19 17 16 17 16 15 15 16 15 13 14 13 11 8 5 3 3 2 1 1
10 13 20 22 32 37 39 46 49 49 49 46 43 42 46 44 38 31 31 25 26 23 22 21 21 21 19 17 18 18 15 14 14 13 12 11 9 8 6 5 4 3 2
7 12 17 24 32 35 39 42 43 44 47 46 41 43 46 45 36 32 30 26 25 24 25 25 23 22 20 20 20 18 17 15 14 11 11 11 10 8 7 6 5 5 3
7 14 21 24 27 30 31 30 36 38 42 42 40 42 42 41 35 31 31 29 28 28 27 26 25 23 22 22 21 19 19 18 13 11 10 10 10 9 8 8 7 6 4
6 9 20 26 28 27 25 28 28 32 36 39 39 39 37 34 31 32 30 28 29 31 29 26 24 23 23 22 22 23 21 19 16 13 11 11 12 11 11 9 9 8 7
5 7 14 23 27 25 24 24 24 27 32 35 35 36 38 39 37 35 34 30 29 28 25 21 23 24 22 20 17 18 21 20 17 16 13 13 13 12 12 11 10 9 8
5 6 10 21 24 24 23 23 21 22 26 31 34 35 35 33 34 36 32 27 25 22 18 17 18 15 10 14 14 14 17 19 19 18 16 15 14 14 13 12 9 8 9